Regional Weather Roundup
Issued by NWS Northern Indiana

Home | Current Version | Previous Version | Graphics & Text | Print | Product List | Glossary On
Versions: 1 2 3 4 5 6 7 8 9 10 11 12 13 14 15 16 17 18 19 20 21 22 23 24 25 26 27 28 29 30 31 32 33 34 35 36 37 38 39 40 41 42 43 44 45 46 47 48 49 50
000
ASUS43 KIWX 020400
RWRIWX

KIWX WEATHER ROUNDUP
NATIONAL WEATHER SERVICE NORTHERN INDIANA
1200 AM EDT THU OCT 02 2014

NOTE: "FAIR" INDICATES FEW OR NO CLOUDS BELOW 12,000 FEET WITH NO
SIGNIFICANT WEATHER AND/OR OBSTRUCTIONS TO VISIBILITY.

* THESE STATIONS ARE NOT UNDER NWS QUALITY CONTROL. THEY ALSO MAY NOT
  REPORT WEATHER SUCH AS PRECIPITATION OR FOG.

INZ001>027-020500-
NORTHERN INDIANA

CITY           SKY/WX    TMP DP  RH WIND       PRES   REMARKS
SOUTH BEND     NOT AVBL
GOSHEN         CLEAR     57  49  74 SE9       29.99S
WARSAW*        CLEAR     52  48  87 E3        29.99S
ANGOLA*        CLEAR     57  48  72 SE3       30.02R
FORT WAYNE     PTCLDY    53  48  83 CALM      30.01S
PERU/GRISSOM   PTCLDY    57  54  88 SE6       29.97S

$$
INZ028>050-020500-
CENTRAL INDIANA

CITY           SKY/WX    TMP DP  RH WIND       PRES   REMARKS
LAFAYETTE      PTCLDY    62  55  77 E6        29.94F
KOKOMO*        PTCLDY    57  48  72 SE6       29.99R
MUNCIE*        CLEAR     59  50  72 SE7       30.00S
INDIANAPOLIS   PTCLDY    64  55  72 SE9       29.98R

$$
MIZ043>046-050>051-056>058-064>065-071>073-077>080-020500-
SOUTHWEST LOWER MICHIGAN

CITY           SKY/WX    TMP DP  RH WIND       PRES   REMARKS
BATTLE CREEK   MOCLDY    56  48  74 SE5       30.01F
BENTON HARBOR  PTCLDY    59  50  72 SE12      29.95F
COLDWATER*     CLEAR     56  50  80 SE6       30.01S
HILLSDALE*     CLEAR     55  55  99 SE5       30.03S FOG
GRAND RAPIDS   MOCLDY    55  51  86 SE3       30.00F
STURGIS*       CLEAR     55  48  76 SE7       30.00R
THREE RIVERS*  FAIR      54  50  86 CALM      30.01S

$$
OHZ001>008-015>018-024>025-020500-
NORTHWEST OHIO

CITY           SKY/WX    TMP DP  RH WIND       PRES   REMARKS
DEFIANCE       CLEAR     53  49  86 E5        30.03S
FINDLAY        CLEAR     54  50  86 E5        30.03R
TOLEDO EXPRESS CLEAR     51  50  96 CALM      30.04R FOG
TOLEDO METCALF CLEAR     55  53  93 E5        30.04S FOG
LIMA           CLEAR     52  47  83 E6        30.04R

$$
AND FOR LAKE MICHIGAN COASTAL AND OPEN LAKE BUOY OBSERVATIONS

STATION/POSITION TEMP    WIND        PRES    VSBY  WAVE
                 AIR SEA DIR/SP/G                  HT/PER
                 (F)     (DEG/KT/KT) (MB)    (MI)  (FT/S)
CALUMET HARBOR                       1012.0
MICHIGAN CITY     63     110/ 12/ 15   N/A
SAINT JOSEPH      61      CALM  /  6 1014.2F
SOUTH LAKE BUOY   63 62  130/ 14/ 17 1013.8F         2/ 3
4 MI NW BRIDGMAN  63 63  120/ 16/ 21   N/A           2/ 2
MICHIGAN CITY     64 64  140/ 16/ 21   N/A           2/ 2

$$
&&


USA.gov is the U.S. government's official web portal to all federal, state and local government web resources and services.